Location: Ipswich
(52.0579°N, 1.1528°E)
Time: 20:19:19
(UTC+01:00)

ISS - Pass Details

Date: 01 May 2026
Orbit: 414 x 424 km, 51.6° (Epoch: 15 May)

Event Time Altitude Azimuth Distance (km) Brightness Sun altitude
Exits shadow 02:16:11 35° 105° (ESE) 700 -2.6 -20.5°
Drops below altitude 10° 02:18:24 10° 83° (E) 1,502 -0.6 -20.4°
Sets 02:20:32 0° 79° (E) 2,370 0.5 -20.2°
